Location: �clusier
(49.9361°N, 2.7869°E)
Time: 20:09:50
(UTC+00:00)

ATLAS CENTAUR R/B - Pass Details

Date: 30 October 2021
Orbit: 459 x 682 km, 64.7° (Epoch: 25 November)

Event Time Altitude Azimuth Distance (km) Brightness Sun altitude
Exits shadow 05:42:22 - 323° (NW) 2,498 4.2 -9.0°
Reaches altitude 10° 05:44:19 10° 340° (NNW) 2,005 3.9 -8.7°
Maximum altitude 05:46:58 15° 16° (NNE) 1,725 3.9 -8.3°
Drops below altitude 10° 05:49:42 10° 51° (NE) 2,071 4.8 -7.9°
Sets 05:53:01 0° 75° (ENE) 3,014 6.3 -7.3°
